ECP45K LPMA-EBLG

Flight info

Callsign ECP45K
Flight time N/A
Altitude 34000
Route LAPPA DCT GALPA DCT NASAS DCT OLBOD DCT XAMAX DCT BALNO DCT RONSI N873 DELOG DCT YURZI UL14 TEPRA UN867 MOKOR UN873 BAZOS DCT CMB DCT CIV
Aircraft A320/M-SDE3FGHIRWY/LB1

Departure

Time N/A
Airport Cristiano Ronaldo International Airport (LPMA)

Arrival

Time 2026-05-06 21:06
Airport Liège Airport (EBLG)
Time Latitude Longitude Altitude Speed Heading
2026-05-06 20:48 50.67222 4.34616 20447 ft 371 kts 72°
2026-05-06 20:49 50.67962 4.38523 19883 ft 373 kts 72°
2026-05-06 20:49 50.68704 4.42452 19374 ft 373 kts 72°
2026-05-06 20:49 50.69437 4.46344 18900 ft 372 kts 72°
2026-05-06 20:49 50.70165 4.50221 18431 ft 370 kts 72°
2026-05-06 20:50 50.70893 4.54115 17976 ft 369 kts 72°
2026-05-06 20:50 50.71611 4.57963 17516 ft 367 kts 72°
2026-05-06 20:50 50.72327 4.61817 17049 ft 365 kts 72°
2026-05-06 20:50 50.73048 4.65705 16767 ft 355 kts 73°
2026-05-06 20:51 50.73743 4.69458 16641 ft 342 kts 72°
2026-05-06 20:51 50.74413 4.73078 16497 ft 330 kts 72°
2026-05-06 20:51 50.74917 4.76632 16370 ft 319 kts 84°
2026-05-06 20:51 50.74878 4.80064 16084 ft 316 kts 98°
2026-05-06 20:52 50.74459 4.83449 15694 ft 315 kts 102°
2026-05-06 20:52 50.73975 4.86794 15319 ft 313 kts 102°
2026-05-06 20:52 50.73485 4.90139 14968 ft 312 kts 102°
2026-05-06 20:52 50.73008 4.93446 14601 ft 310 kts 101°
2026-05-06 20:53 50.72540 4.96731 14238 ft 308 kts 101°
2026-05-06 20:53 50.72075 5.00026 13875 ft 306 kts 101°
2026-05-06 20:53 50.71619 5.03269 13534 ft 304 kts 101°
2026-05-06 20:53 50.71160 5.06537 13174 ft 303 kts 101°
2026-05-06 20:54 50.70710 5.09742 12821 ft 301 kts 101°
2026-05-06 20:54 50.70262 5.12924 12475 ft 299 kts 101°
2026-05-06 20:54 50.69814 5.16096 12126 ft 297 kts 101°
2026-05-06 20:54 50.69364 5.19283 11773 ft 295 kts 101°
2026-05-06 20:55 50.68924 5.22390 11439 ft 293 kts 101°
2026-05-06 20:55 50.68481 5.25511 11092 ft 292 kts 101°
2026-05-06 20:55 50.68035 5.28639 10736 ft 290 kts 101°
2026-05-06 20:55 50.67599 5.31698 10402 ft 288 kts 101°
2026-05-06 20:56 50.67163 5.34753 10068 ft 286 kts 101°
2026-05-06 20:56 50.66725 5.37806 9728 ft 284 kts 101°
2026-05-06 20:56 50.66286 5.40840 9387 ft 283 kts 102°
2026-05-06 20:56 50.65448 5.43603 9049 ft 284 kts 130°
2026-05-06 20:57 50.63853 5.45349 8742 ft 283 kts 160°
2026-05-06 20:57 50.61926 5.45711 8424 ft 281 kts 188°
2026-05-06 20:57 50.60038 5.44981 8110 ft 278 kts 196°
2026-05-06 20:57 50.58190 5.44128 7779 ft 277 kts 196°
2026-05-06 20:58 50.56355 5.43300 7450 ft 277 kts 196°
2026-05-06 20:58 50.54502 5.42495 7120 ft 276 kts 195°
2026-05-06 20:58 50.52655 5.41714 6797 ft 275 kts 195°
2026-05-06 20:58 50.50806 5.40942 6469 ft 274 kts 195°
2026-05-06 20:59 50.48976 5.40181 6142 ft 273 kts 195°
2026-05-06 20:59 50.47148 5.39232 5926 ft 279 kts 208°
2026-05-06 20:59 50.45573 5.37513 5926 ft 279 kts 224°
2026-05-06 20:59 50.44176 5.35370 5928 ft 279 kts 227°
2026-05-06 21:00 50.42998 5.33013 5907 ft 275 kts 249°
2026-05-06 21:00 50.42726 5.30140 5899 ft 269 kts 281°
2026-05-06 21:00 50.43399 5.27467 5291 ft 267 kts 311°
2026-05-06 21:00 50.44709 5.25450 4530 ft 265 kts 321°
2026-05-06 21:01 50.46085 5.23570 3760 ft 262 kts 330°
2026-05-06 21:01 50.47739 5.22708 3197 ft 245 kts
2026-05-06 21:01 50.49325 5.23225 2984 ft 222 kts 21°
2026-05-06 21:01 50.50670 5.24277 2968 ft 210 kts 33°
2026-05-06 21:02 50.51762 5.25592 2959 ft 191 kts 39°
2026-05-06 21:02 50.52719 5.26945 2963 ft 182 kts 41°
2026-05-06 21:02 50.53606 5.28292 3080 ft 169 kts 43°
2026-05-06 21:02 50.54378 5.29511 3018 ft 148 kts 43°
2026-05-06 21:03 50.55080 5.30631 2846 ft 142 kts 43°
2026-05-06 21:03 50.55767 5.31729 2639 ft 141 kts 43°
2026-05-06 21:03 50.56454 5.32827 2458 ft 141 kts 44°
2026-05-06 21:03 50.57131 5.33924 2270 ft 141 kts 43°
2026-05-06 21:04 50.57816 5.35019 2040 ft 140 kts 41°
2026-05-06 21:04 50.58508 5.36105 1850 ft 139 kts 43°
2026-05-06 21:04 50.59176 5.37205 1750 ft 139 kts 44°
2026-05-06 21:04 50.59848 5.38298 1633 ft 140 kts 43°
2026-05-06 21:05 50.60553 5.39344 1334 ft 138 kts 40°
2026-05-06 21:05 50.61218 5.40416 1127 ft 138 kts 46°
2026-05-06 21:05 50.61906 5.41502 932 ft 141 kts 43°
2026-05-06 21:05 50.62597 5.42598 753 ft 142 kts 45°
2026-05-06 21:06 50.63285 5.43690 621 ft 134 kts 44°
2026-05-06 21:06 50.63768 5.44454 598 ft 57 kts 45°
2026-05-06 21:06 50.63941 5.44818 594 ft 34 kts 68°
2026-05-06 21:06 50.63987 5.45093 598 ft 18 kts 78°
2026-05-06 21:07 50.64035 5.45245 597 ft 17 kts 46°
2026-05-06 21:07 50.64124 5.45386 595 ft 18 kts 45°
2026-05-06 21:07 50.64214 5.45528 596 ft 18 kts 45°
2026-05-06 21:07 50.64299 5.45664 597 ft 17 kts 45°
2026-05-06 21:08 50.64378 5.45788 599 ft 12 kts 44°
2026-05-06 21:08 50.64422 5.45867 599 ft 6 kts 82°
2026-05-06 21:08 50.64397 5.45918 601 ft 5 kts 136°
2026-05-06 21:08 50.64378 5.45948 603 ft 0 kts 135°